CW9352 Weather Reports


Display with metric or nautical units.
time (UTC)temp
F
wind
direction
speed
MPH
gust
MPH
rain 1hr
in
rain 24hr
in
rain mn
in
humidity
%
barometer
mb
20260502164020 65 353 5.0 12.0 0.00 3.63 1.59 78 1014.1
20260502163019 64 358 6.0 12.0 0.00 3.63 1.59 79 1014.2
20260502162020 64 349 5.0 14.0 0.00 3.63 1.59 79 1014.3
20260502161020 63 345 4.0 11.0 0.00 3.63 1.59 82 1014.4
20260502152020 61 358 5.0 12.0 0.00 3.63 1.59 85 1014.0
20260502151021 60 349 5.0 10.0 0.00 3.63 1.59 89 1013.9
20260502123023 54 2 3.0 9.0 0.02 3.62 1.59 99 1012.3
20260502122017 54 358 4.0 10.0 0.03 3.62 1.59 99 1012.3
20260502121017 54 1 4.0 11.0 0.07 3.62 1.59 99 1012.2
20260502115024 54 2 4.0 7.0 0.17 3.62 1.59 99 1012.2
20260502114024 54 344 3.0 8.0 0.20 3.62 1.59 99 1012.3
20260502113018 54 1 3.0 8.0 0.21 3.60 1.57 99 1012.4
20260502112018 54 345 4.0 8.0 0.19 3.59 1.56 99 1012.3
20260502111019 54 350 3.0 8.0 0.15 3.55 1.52 99 1012.4
20260502110018 54 345 3.0 7.0 0.08 3.47 1.44 99 1012.3
20260502105018 54 351 5.0 9.0 0.07 3.45 1.42 99 1011.4
20260502104021 55 350 5.0 12.0 0.09 3.43 1.39 99 1011.3
20260502103019 55 348 4.0 10.0 0.06 3.40 1.36 99 1011.9
20260502102019 55 349 4.0 9.0 0.07 3.40 1.36 99 1012.2
20260502101020 55 347 4.0 11.0 0.13 3.40 1.36 99 1011.7
20260502091023 56 348 3.0 7.0 0.42 3.26 1.23 99 1012.0
20260502071041 56 354 5.0 9.0 0.26 2.46 0.43 99 1010.1
20260502070021 56 345 4.0 8.0 0.27 2.44 0.40 99 1010.9
20260502065021 56 354 5.0 7.0 0.30 2.42 0.39 99 1010.3
20260502064102 56 343 3.0 7.0 0.33 2.36 0.33 99 1011.1
20260502063022 56 339 3.0 6.0 0.28 2.31 0.28 99 1011.4
20260502062022 56 355 4.0 7.0 0.25 2.28 0.25 99 1011.2
20260502061022 56 346 3.0 6.0 0.17 2.20 0.17 99 1011.9
20260502060022 56 345 4.0 8.0 0.14 2.17 0.14 99 1011.7
20260502055022 56 350 3.0 7.0 0.08 2.11 0.08 99 1012.1
20260502054022 56 342 3.0 8.0 0.00 2.03 0.00 99 1012.0
20260502053022 56 345 4.0 6.0 0.00 2.03 0.00 99 1011.4
20260502052023 56 358 4.0 9.0 0.00 2.03 0.00 99 1011.7
20260502051017 56 351 5.0 8.0 0.00 2.03 0.00 99 1011.5
20260502050017 56 351 5.0 10.0 0.05 2.03 0.00 99 1011.8
20260502045023 56 359 5.0 10.0 0.09 2.03 2.03 99 1011.9
20260502044023 56 353 5.0 8.0 0.13 2.03 2.03 99 1011.9
20260502043020 56 351 4.0 11.0 0.15 2.03 2.03 99 1012.0
20260502042037 56 353 5.0 9.0 0.16 2.03 2.03 98 1011.9
20260502041017 56 356 5.0 12.0 0.17 2.03 2.03 98 1012.1
20260502040038 56 14 4.0 9.0 0.13 1.98 1.98 98 1012.4
20260502035024 56 17 3.0 7.0 0.09 1.94 1.94 98 1013.3
20260502034018 57 348 3.0 6.0 0.07 1.90 1.90 98 1013.9
20260502033021 57 335 1.0 3.0 0.10 1.88 1.88 98 1014.0
20260502032019 57 354 2.0 5.0 0.15 1.87 1.87 98 1013.2
20260502031019 57 352 2.0 5.0 0.21 1.86 1.86 98 1013.2
20260502030018 57 358 2.0 7.0 0.41 1.85 1.85 98 1013.3
20260502025019 57 348 2.0 5.0 0.45 1.85 1.85 98 1013.8
20260502024019 57 353 2.0 5.0 0.54 1.83 1.83 98 1013.6
20260502023019 57 337 1.0 4.0 0.58 1.78 1.78 98 1014.2
20260502022019 57 342 2.0 5.0 0.63 1.72 1.72 98 1013.5
20260502021019 57 350 4.0 8.0 0.59 1.65 1.65 98 1012.9
20260502020059 57 355 5.0 11.0 0.41 1.45 1.45 98 1012.4
20260502015019 57 359 6.0 12.0 0.38 1.40 1.40 98 1011.6
20260502014019 57 349 4.0 7.0 0.35 1.29 1.28 97 1011.9
20260502013020 58 350 4.0 9.0 0.40 1.20 1.20 97 1011.8
20260502012017 58 351 5.0 11.0 0.44 1.09 1.09 97 1011.8
20260502011020 58 355 5.0 8.0 0.54 1.07 1.06 97 1011.9
20260502010020 58 350 4.0 8.0 0.55 1.04 1.04 97 1011.7
20260502005040 58 352 5.0 10.0 0.57 1.02 1.02 97 1011.4
20260502004017 59 359 5.0 11.0 0.58 0.93 0.93 97 1011.4
20260502003018 60 351 5.0 12.0 0.50 0.80 0.80 96 1011.4
20260502002020 60 349 4.0 7.0 0.44 0.65 0.65 96 1011.7
20260502001020 61 357 4.0 8.0 0.37 0.53 0.53 96 1011.4
20260502000022 61 344 2.0 4.0 0.37 0.49 0.49 96 1011.4
20260501235021 62 349 3.0 9.0 0.33 0.45 0.45 96 1011.3
20260501234021 63 234 2.0 6.0 0.23 0.35 0.35 95 1011.3
20260501233018 63 354 5.0 11.0 0.18 0.30 0.30 95 1010.9
20260501232021 64 347 3.0 10.0 0.09 0.21 0.20 94 1010.9
20260501231021 65 356 5.0 9.0 0.04 0.16 0.16 93 1009.9
20260501230101 65 356 5.0 9.0 0.00 0.12 0.12 92 1009.8
20260501225021 65 356 5.0 10.0 0.00 0.12 0.12 92 1010.2
20260501224022 65 354 4.0 8.0 0.00 0.12 0.12 93 1010.3
20260501223039 65 355 5.0 13.0 0.00 0.12 0.12 93 1010.1
20260501222042 65 352 3.0 6.0 0.01 0.12 0.12 93 1010.4
20260501221022 65 352 3.0 6.0 0.01 0.12 0.12 93 1010.7
20260501220019 65 1 5.0 10.0 0.01 0.12 0.12 92 1010.5
20260501215017 65 353 5.0 8.0 0.00 0.12 0.12 92 1010.7
20260501214043 65 1 5.0 8.0 0.00 0.12 0.12 92 1010.7
20260501213022 65 358 4.0 7.0 0.00 0.12 0.12 92 1011.1
20260501212023 65 350 4.0 7.0 0.00 0.12 0.11 93 1010.6
20260501211043 65 351 4.0 7.0 0.00 0.12 0.11 92 1010.5
20260501210023 65 351 3.0 8.0 0.00 0.12 0.11 92 1010.4
20260501205017 65 357 6.0 9.0 0.00 0.12 0.11 92 1010.0
20260501204037 65 356 4.0 9.0 0.00 0.12 0.11 93 1010.0
20260501203018 66 4 4.0 7.0 0.00 0.12 0.11 95 1009.9
20260501202038 66 357 4.0 8.0 0.00 0.12 0.11 95 1010.3
20260501201044 66 356 2.0 3.0 0.00 0.12 0.11 95 1010.8
20260501200038 66 1 3.0 6.0 0.00 0.12 0.11 96 1011.0
20260501195044 66 356 3.0 4.0 0.00 0.12 0.11 96 1011.2
20260501194024 66 1 3.0 5.0 0.02 0.12 0.11 96 1011.7
20260501193025 66 346 2.0 5.0 0.02 0.12 0.11 96 1011.8
20260501192038 66 356 3.0 6.0 0.02 0.12 0.11 96 1011.8
20260501191019 66 11 3.0 8.0 0.03 0.12 0.11 96 1012.0
20260501190019 66 349 3.0 5.0 0.10 0.12 0.11 96 1012.1
20260501185025 66 351 3.0 4.0 0.11 0.11 0.11 95 1012.5
20260501184025 66 345 2.0 4.0 0.10 0.10 0.10 95 1012.7
20260501183045 66 349 3.0 5.0 0.10 0.10 0.10 94 1012.6
20260501182036 67 342 2.0 5.0 0.09 0.10 0.09 93 1012.5
20260501181019 68 355 2.0 4.0 0.08 0.09 0.08 91 1012.5
20260501180019 68 356 3.0 5.0 0.01 0.02 0.01 88 1012.5
20260501175200 69 346 2.0 5.0 0.00 0.01 0.00 87 1012.8
20260501174017 70 341 2.0 4.0 0.00 0.01 0.00 87 1012.5
20260501173017 69 355 4.0 9.0 0.00 0.01 0.00 87 1012.7
20260501172017 70 7 3.0 6.0 0.00 0.01 0.00 87 1013.1